CDT,Max TemperatureF,Mean TemperatureF,Min TemperatureF,Max Dew PointF,MeanDew PointF,Min DewpointF,Max Humidity, Mean Humidity, Min Humidity, Max Sea Level PressureIn, Mean Sea Level PressureIn, Min Sea Level PressureIn, Max VisibilityMiles, Mean VisibilityMiles, Min VisibilityMiles, Max Wind SpeedMPH, Mean Wind SpeedMPH, Max Gust SpeedMPH,PrecipitationIn, CloudCover, Events, WindDirDegrees
2013-5-1,82,65,48,55,52,43,82,62,39,30.20,30.03,29.88,10,10,10,30,10,38,0.00,1,,302
2013-5-2,48,42,35,43,38,36,100,88,76,30.30,30.25,30.17,10,8,2,22,17,28,0.37,7,Rain,351
2013-5-3,44,38,35,45,38,36,100,100,100,30.21,30.03,29.87,10,6,2,21,15,25,1.68,8,Rain-Snow,1
2013-5-4,64,54,44,61,55,45,100,96,77,30.05,29.94,29.84,10,6,1,16,9,24,0.56,8,Rain,105
2013-5-5,73,60,48,61,55,48,100,84,47,30.07,30.02,29.98,10,8,0,13,4,17,0.00,4,Fog,346
2013-5-6,75,63,51,55,52,48,100,69,41,30.07,30.03,30.00,10,10,10,9,3,,0.00,2,,358
2013-5-7,78,64,50,55,50,46,94,61,34,30.06,30.03,29.99,10,10,4,7,2,,0.00,1,,336
2013-5-8,78,64,51,61,54,50,100,70,36,30.04,30.00,29.97,10,10,10,10,2,,0.00,2,Rain,176
2013-5-9,68,64,60,64,61,59,100,93,83,29.97,29.88,29.81,10,10,4,14,6,17,0.45,6,Rain,214
2013-5-10,59,54,48,57,51,48,100,90,77,30.02,29.96,29.84,10,9,3,17,10,21,0.04,6,Rain,351
2013-5-11,59,50,39,50,38,27,100,63,33,30.17,30.06,29.95,10,9,4,29,13,43,0.00,2,Rain,295
2013-5-12,60,48,35,32,29,28,81,50,29,30.24,30.18,30.13,10,10,10,20,9,26,0.00,0,,303
2013-5-13,73,55,37,46,39,32,87,55,30,30.18,30.09,29.92,10,10,10,18,6,23,0.00,0,,210
2013-5-14,91,74,57,64,56,46,88,55,35,29.92,29.77,29.66,10,10,10,24,13,33,0.00,0,,210
2013-5-15,80,72,64,55,51,41,68,46,24,29.89,29.85,29.74,10,10,4,18,10,26,0.00,0,,324
2013-5-16,84,72,60,64,58,52,88,64,33,29.94,29.89,29.84,10,10,2,15,6,21,0.00,2,Rain,150
2013-5-17,82,70,59,63,61,57,100,72,48,29.98,29.94,29.89,10,10,7,14,6,20,0.00,2,Rain,167
2013-5-18,84,72,60,66,63,61,100,75,48,30.00,29.94,29.86,10,9,4,16,7,18,0.00,2,,143
2013-5-19,86,75,62,72,66,57,100,78,47,29.88,29.76,29.59,10,9,4,30,12,51,0.35,3,Rain,150
2013-5-20,82,72,62,64,63,59,100,77,54,29.74,29.68,29.60,10,10,10,24,13,32,0.00,1,Rain,190
2013-5-21,78,70,62,64,59,55,100,75,47,29.72,29.68,29.63,10,10,7,20,13,24,0.01,4,Rain,223
2013-5-22,66,62,57,59,55,54,100,82,68,29.84,29.73,29.67,10,10,5,16,7,21,0.02,6,Rain,265
2013-5-23,71,62,51,57,51,45,100,75,43,30.27,30.07,29.84,10,9,2,20,12,28,0.02,6,Rain,2
2013-5-24,69,56,44,48,43,39,100,63,33,30.43,30.34,30.23,10,10,5,18,8,22,0.00,1,Rain,125
2013-5-25,60,54,48,52,49,45,100,87,55,30.38,30.26,30.20,10,10,7,23,11,30,0.86,7,Rain,117
2013-5-26,64,58,51,63,56,50,100,97,94,30.22,30.12,29.96,10,8,2,21,13,29,2.03,8,Rain,112
2013-5-27,73,66,59,66,63,59,100,94,78,30.02,29.87,29.77,10,8,0,22,8,,0.05,7,Fog-Rain,136
2013-5-28,80,71,62,73,67,61,100,90,78,29.88,29.74,29.63,10,10,2,22,12,32,0.58,6,Rain,204
2013-5-29,82,72,62,73,67,61,100,81,61,29.89,29.82,29.74,10,10,7,29,13,38,0.06,2,Rain,174
2013-5-30,77,70,62,70,65,63,100,84,69,29.79,29.74,29.63,10,10,0,29,15,44,0.33,2,Rain,172
2013-5-31,75,68,60,70,64,57,100,86,64,29.78,29.74,29.66,10,10,5,37,11,44,0.01,2,Rain,182